User: anonymous   Login
Location: Rometta
(44.2000°N, 10.0500°E)
Time: 17:15:35
(UTC+00:00)
Language:

Cosmos 1818 - Orbit

View from above orbital plane
View from above orbital plane
View from above satellite
View from above satellite

Ground track
Ground track

The orbit data is extracted from the following two-line orbital elements,

1 17369U 87011A   21109.76841739 -.00000082  00000-0  69366-5 0  9997
2 17369  65.0091 125.6944 0020509 281.2350  78.6429 14.31466414839041
Epoch (UTC): 19 April 2021 18:26:31
Eccentricity: 0.0020509
inclination: 65.0091°
perigee height: 772 km
apogee height: 801 km
right ascension of ascending node: 125.6944°
argument of perigee: 281.2350°
revolutions per day: 14.31466414
mean anomaly at epoch: 78.6429°
orbit number at epoch: 83904

The dashed part of the orbit path shows where the satellite is in the earth's shadow,  

DLR